{"data":{"norad_id":43028,"intl_designator":"2017-075A","name":"YAOGAN-30 03A","alt_names":[],"object_type":"PAYLOAD","status":"ACTIVE","operator":null,"country":"PRC","launch_date":"2017-11-24","launch_site_code":"XICLF","launch_vehicle":null,"mission":null,"orbit_class":"UNKNOWN","rcs_meters":null,"size_class":null,"mass_kg":null,"dimensions":null,"purposes":[],"wikipedia_slug":null,"has_3d_model":false,"image_url":null,"decayed_at":null,"tle_current":{"epoch":"2026-05-25T03:51:51.187104Z","epoch_age_seconds":58448,"freshness":"FRESH","line1":"1 43028U 17075A   26145.16100911  .00002467  00000+0  18335-3 0  9995","line2":"2 43028  34.9955  50.8917 0000905 120.7045 239.3753 15.02680444463781","mean_motion":15.02680444,"eccentricity":9.05e-5,"inclination_deg":34.9955,"raan_deg":50.8917,"arg_perigee_deg":120.7045,"mean_anomaly_deg":239.3753,"bstar":0.00018335,"rev_number":46378,"period_min":95.828757587798,"perigee_km":558.00719200678,"apogee_km":559.26274773332,"semimajor_km":6936.7719698701,"source":"CELESTRAK","updated_at":"2026-05-25T13:37:55.756534Z"}}}